Clinton, OK

4:31 PM CDT on July 21, 2017 (GMT -0500)
Clinton Municipal

Weather History for KCLK - October, 2012

Change the Weather History Date:

Sunday, October 14, 2012

  Actual Average (KCSM) Record (KCSM)
Temperature  
Mean Temperature 66 °F -  
Max Temperature 78 °F 71 °F 93 °F (2015)
Min Temperature 53 °F 49 °F 39 °F (2004)
Growing Degree Days 16 (Base 50)    
Moisture  
Dew Point 36 °F    
Average Humidity 37    
Maximum Humidity 67    
Minimum Humidity 16    
Precipitation  
Precipitation 0.00 in - - ()
Sea Level Pressure  
Sea Level Pressure 30.04 in    
Wind  
Wind Speed 11 mph (NW)    
Max Wind Speed 20 mph    
Max Gust Speed 25 mph    
Visibility 10 miles    
Events      
Averages and records for this station are not official NWS values.
T = Trace of Precipitation, MM = Missing Value Source: NWS Daily Summary

Daily Weather History Graph

Daily Weather History Graph

Search for Another Location

Airport or City:

Trip Planner

Search our weather history database for the weather conditions in past years. The results will help you decide how hot, cold, wet, or windy it might be!

Date:

Astronomy

Oct. 14, 2012 Rise Set
Actual Time 7:41 AM CDT 7:00 PM CDT
Civil Twilight 7:16 AM CDT 7:26 PM CDT
Nautical Twilight 6:46 AM CDT 7:56 PM CDT
Astronomical Twilight 6:16 AM CDT 8:25 PM CDT
Moon 6:43 AM CDT (10/14) 6:22 PM CDT (10/14)
Length of Visible Light 12h 10m
Length of Day
11h 19m
Waning Crescent, 1% of the Moon is Illuminated
Oct 14
Waning Crescent
Oct 15
New
Oct 21
First Quarter
Oct 29
Full
Nov 6
Last Quarter

Hourly Weather History & Observations

Time (CDT) Temp. Dew Point Humidity Pressure Visibility Wind Dir Wind Speed Gust Speed Precip Events Conditions
12:15 AM 60.8 °F 37.4 °F 42% 29.83 in 10.0 mi West 10.4 mph - N/A   Clear
12:35 AM 60.8 °F 39.2 °F 45% 29.83 in 10.0 mi West 10.4 mph - N/A   Clear
12:55 AM 60.8 °F 37.4 °F 42% 29.83 in 10.0 mi West 13.8 mph - N/A   Clear
1:15 AM 60.8 °F 37.4 °F 42% 29.84 in 10.0 mi West 11.5 mph - N/A   Clear
1:35 AM 60.8 °F 37.4 °F 42% 29.85 in 10.0 mi West 11.5 mph - N/A   Clear
1:55 AM 60.8 °F 39.2 °F 45% 29.86 in 10.0 mi West 12.7 mph 17.3 mph N/A   Clear
2:15 AM 60.8 °F 41.0 °F 48% 29.86 in 10.0 mi West 10.4 mph 17.3 mph N/A   Clear
2:35 AM 60.8 °F 41.0 °F 48% 29.87 in 10.0 mi West 8.1 mph - N/A   Clear
2:55 AM 59.0 °F 41.0 °F 51% 29.87 in 10.0 mi West 11.5 mph - N/A   Clear
3:15 AM 59.0 °F 41.0 °F 51% 29.88 in 10.0 mi WSW 9.2 mph - N/A   Clear
3:35 AM 59.0 °F 41.0 °F 51% 29.89 in 10.0 mi West 11.5 mph - N/A   Clear
3:55 AM 59.0 °F 41.0 °F 51% 29.90 in 10.0 mi WNW 10.4 mph 20.7 mph N/A   Clear
4:15 AM 60.8 °F 42.8 °F 52% 29.90 in 10.0 mi West 16.1 mph 20.7 mph N/A   Clear
4:35 AM 60.8 °F 42.8 °F 52% 29.91 in 10.0 mi WNW 13.8 mph 18.4 mph N/A   Clear
4:55 AM 59.0 °F 42.8 °F 55% 29.91 in 10.0 mi WNW 15.0 mph - N/A   Clear
5:15 AM 59.0 °F 42.8 °F 55% 29.92 in 10.0 mi WNW 12.7 mph - N/A   Clear
5:35 AM 55.4 °F 42.8 °F 63% 29.93 in 10.0 mi NW 9.2 mph - N/A   Clear
5:55 AM 55.4 °F 42.8 °F 63% 29.93 in 10.0 mi NW 11.5 mph - N/A   Clear
6:15 AM 53.6 °F 42.8 °F 67% 29.95 in 10.0 mi NW 11.5 mph - N/A   Clear
6:35 AM 57.2 °F 41.0 °F 55% 29.95 in 10.0 mi NW 11.5 mph - N/A   Clear
6:55 AM 57.2 °F 41.0 °F 55% 29.96 in 10.0 mi NW 10.4 mph - N/A   Clear
7:15 AM 57.2 °F 39.2 °F 51% 29.98 in 10.0 mi NW 10.4 mph - N/A   Clear
7:35 AM 55.4 °F 39.2 °F 54% 29.99 in 10.0 mi NW 6.9 mph - N/A   Clear
7:55 AM 55.4 °F 39.2 °F 54% 30.01 in 10.0 mi NW 6.9 mph - N/A   Clear
8:15 AM 57.2 °F 39.2 °F 51% 30.02 in 10.0 mi WNW 8.1 mph - N/A   Clear
8:35 AM 59.0 °F 39.2 °F 48% 30.04 in 10.0 mi NW 10.4 mph - N/A   Clear
8:55 AM 60.8 °F 39.2 °F 45% 30.05 in 10.0 mi NW 12.7 mph - N/A   Clear
9:15 AM 62.6 °F 37.4 °F 39% 30.07 in 10.0 mi NW 13.8 mph - N/A   Clear
9:35 AM 62.6 °F 37.4 °F 39% 30.08 in 10.0 mi NW 15.0 mph 19.6 mph N/A   Clear
9:55 AM 64.4 °F 37.4 °F 37% 30.10 in 10.0 mi NNW 13.8 mph 21.9 mph N/A   Clear
10:15 AM 68.0 °F 35.6 °F 30% 30.11 in 10.0 mi NNW 13.8 mph 17.3 mph N/A   Clear
10:35 AM 69.8 °F 33.8 °F 27% 30.13 in 10.0 mi NNW 12.7 mph 19.6 mph N/A   Clear
10:55 AM 71.6 °F 32.0 °F 23% 30.13 in 10.0 mi North 17.3 mph 21.9 mph N/A   Clear
11:15 AM 73.4 °F 32.0 °F 22% 30.13 in 10.0 mi North 16.1 mph 23.0 mph N/A   Clear
11:35 AM 73.4 °F 30.2 °F 20% 30.14 in 10.0 mi North 19.6 mph 25.3 mph N/A   Clear
11:55 AM 73.4 °F 30.2 °F 20% 30.14 in 10.0 mi North 18.4 mph - N/A   Clear
12:15 PM 75.2 °F 30.2 °F 19% 30.14 in 10.0 mi North 16.1 mph 24.2 mph N/A   Clear
12:35 PM 75.2 °F 30.2 °F 19% 30.14 in 10.0 mi NNW 16.1 mph - N/A   Clear
12:55 PM 77.0 °F 30.2 °F 18% 30.13 in 10.0 mi North 15.0 mph 20.7 mph N/A   Clear
1:15 PM 77.0 °F 30.2 °F 18% 30.13 in 10.0 mi North 15.0 mph 24.2 mph N/A   Clear
1:35 PM 77.0 °F 30.2 °F 18% 30.13 in 10.0 mi North 18.4 mph 24.2 mph N/A   Clear
1:55 PM 78.8 °F 30.2 °F 17% 30.12 in 10.0 mi North 15.0 mph 23.0 mph N/A   Clear
2:15 PM 78.8 °F 32.0 °F 18% 30.11 in 10.0 mi North 18.4 mph 23.0 mph N/A   Clear
2:55 PM 78.8 °F 32.0 °F 18% 30.10 in 10.0 mi North 15.0 mph - N/A   Clear
3:15 PM 78.8 °F 30.2 °F 17% 30.09 in 10.0 mi NNW 9.2 mph 18.4 mph N/A   Clear
3:35 PM 78.8 °F 30.2 °F 17% 30.09 in 10.0 mi North 12.7 mph 20.7 mph N/A   Clear
3:55 PM 78.8 °F 30.2 °F 17% 30.08 in 10.0 mi NNW 9.2 mph - N/A   Clear
4:15 PM 78.8 °F 30.2 °F 17% 30.08 in 10.0 mi North 12.7 mph 17.3 mph N/A   Clear
4:35 PM 78.8 °F 28.4 °F 16% 30.08 in 10.0 mi NW 13.8 mph 20.7 mph N/A   Clear
4:55 PM 78.8 °F 30.2 °F 17% 30.08 in 10.0 mi NNW 12.7 mph 17.3 mph N/A   Clear
5:15 PM 78.8 °F 30.2 °F 17% 30.08 in 10.0 mi NNW 11.5 mph - N/A   Clear
5:35 PM 77.0 °F 30.2 °F 18% 30.09 in 10.0 mi NW 10.4 mph - N/A   Clear
5:55 PM 77.0 °F 30.2 °F 18% 30.09 in 10.0 mi North 11.5 mph 19.6 mph N/A   Clear
6:15 PM 75.2 °F 32.0 °F 21% 30.09 in 10.0 mi North 9.2 mph - N/A   Clear
6:35 PM 73.4 °F 32.0 °F 22% 30.09 in 10.0 mi NNW 6.9 mph - N/A   Clear
6:55 PM 71.6 °F 32.0 °F 23% 30.09 in 10.0 mi North 4.6 mph - N/A   Clear
7:15 PM 69.8 °F 32.0 °F 25% 30.09 in 10.0 mi North 3.5 mph - N/A   Clear
7:35 PM 69.8 °F 32.0 °F 25% 30.10 in 10.0 mi North 4.6 mph - N/A   Clear
7:55 PM 68.0 °F 32.0 °F 26% 30.11 in 10.0 mi NNE 3.5 mph - N/A   Clear
8:15 PM 64.4 °F 33.8 °F 32% 30.11 in 10.0 mi NNE 4.6 mph - N/A   Clear
8:35 PM 62.6 °F 35.6 °F 37% 30.11 in 10.0 mi ENE 4.6 mph - N/A   Clear
8:55 PM 60.8 °F 35.6 °F 39% 30.11 in 3.0 mi NE 5.8 mph - N/A   Haze
9:15 PM 59.0 °F 35.6 °F 42% 30.11 in 10.0 mi NE 4.6 mph - N/A   Clear
9:35 PM 57.2 °F 37.4 °F 48% 30.12 in 10.0 mi Calm Calm - N/A   Clear
9:55 PM 59.0 °F 37.4 °F 45% 30.13 in 10.0 mi Calm Calm - N/A   Clear
10:15 PM 53.6 °F 39.2 °F 58% 30.13 in 10.0 mi NNW 3.5 mph - N/A   Clear
10:35 PM 53.6 °F 37.4 °F 54% 30.14 in 10.0 mi Calm Calm - N/A   Clear
10:55 PM 55.4 °F 37.4 °F 51% 30.14 in 10.0 mi Calm Calm - N/A   Clear
11:15 PM 55.4 °F 37.4 °F 51% 30.14 in 10.0 mi Calm Calm - N/A   Clear
11:35 PM 55.4 °F 37.4 °F 51% 30.14 in 7.0 mi Calm Calm - N/A   Clear
11:55 PM 53.6 °F 39.2 °F 58% 30.14 in 10.0 mi Calm Calm - N/A   Clear